www.pogodaiklimat.ru

Погода и климат >> Архив погоды >> Россия >> Адыгея >> Гузерипль


ПОГОДА в Гузерипле

  • Прогноз погоды в Гузерипле
  • Монитор погоды в Гузерипле

АРХИВ ПОГОДЫ в Гузерипле

Время (UTC), дата Ветер
(напр.,м/с)
 
Видим.   Явления Облачность Т
(С)
Тd
(С)
f
(%)
Тe
(С)
Тes
(С)
Комфортность P
(гПа)
Po
(гПа)
Тmin
(С)
Tmax
(С)
R
(мм)
R24
(мм)
S
(см)
09 19.04 В 2 20 км 9/9 600 м
[Cb cap]
+9.5 +4.0 69 +8 +10 1014.0 934.7
12 19.04 В 1 10 км слаб. ливневой дождь 10/10 600 м
[Cb cap]
+6.8 +3.9 82 +6 +6 1015.7 935.6
15 19.04 В 2 20 км {ливн. осадки} 10/10 600 м
[Cb cap]
+5.9 +3.3 83 +4 +4 1016.7 936.2 +10.0 1
18 19.04 штиль 0 10 км слаб. ливневой дождь 10/10 600 м
[Cb cap]
+4.4 +3.7 95 +3 +3 1018.2 937.2
21 19.04 штиль 0 20 км {ливн. осадки} 10/10 600 м
[Cb cap]
+3.4 +3.2 99 +2 +2 1017.9 936.7
00 20.04 штиль 0 20 км {ливн. осадки} 10/10 600 м
[Cb cap]
+3.4 +3.1 98 +2 +2 1017.5 936.3
03 20.04 штиль 0 20 км 10/10 600 м
[Cb cap]
+3.4 +3.3 99 +2 +2 1017.6 936.4 +3.3 1
06 20.04 В 1 20 км {ливн. осадки} 10/10 600 м
[Cb cap]
+6.5 +3.4 81 +6 +6 1017.3 936.9
09 20.04 СВ 2 20 км 10/10 600 м
[Cb cap]
+8.2 +3.8 74 +6 +6 1017.2 937.3
12 20.04 ЮВ 1 20 км 10/10 600 м
[Cb cap]
+6.7 +3.0 77 +6 +6 1018.6 938.2
15 20.04 Ю 1 20 км 10/10 1000 м
[Sc diur, vesp]
+6.5 +2.4 75 +6 +6 1019.2 938.7 +8.8 0.0
18 20.04 штиль 0 20 км 8/8 1000 м
[Sc]
+3.8 +2.2 89 +3 +3 1020.0 938.7
21 20.04 штиль 0 20 км 10/10 1000 м
[Sc]
+2.7 +2.3 97 +1 +1 1019.2 937.7
00 21.04 штиль 0 20 км 10/10 600 м
[Sc]
+3.3 +2.8 97 +2 +2 1017.8 936.5
03 21.04 штиль 0 20 км 10/10 600 м
[Sc diur, vesp]
+3.4 +3.0 97 +2 +2 1017.0 935.8 +2.3
06 21.04 ЮВ 1 20 км 9/9 1000 м
[Sc diur, vesp]
+5.7 +0.5 69 +5 +6 1016.5 936.0
09 21.04 В 4 20 км 6/6 1000 м
[Sc diur, vesp]
+9.5 +1.6 58 +7 +11 1015.8 936.3
12 21.04 В 1 20 км 10/10 1000 м
[Cb cap]
+8.4 +0.8 59 +8 +8 1017.4 937.5
15 21.04 ЮВ 1 20 км 10/10 1000 м
[Cb cap]
+7.4 -0.2 59 +7 +7 1017.9 937.7 +10.2
18 21.04 штиль 0 20 км 10/10 1000 м
[Cb cap]
+5.9 +1.9 75 +5 +5 1018.4 937.8
21 21.04 штиль 0 20 км 8/8 1000 м
[Sc diur, vesp]
+3.9 +2.0 87 +3 +3 1019.0 937.8
00 22.04 штиль 0 20 км 5/5 100 м
[Sc diur, vesp]
+2.6 +1.9 95 +1 +1 1019.8 938.2
03 22.04 З 1 20 км 9/9 1000 м
[Sc diur, vesp]
+2.7 +1.8 94 +1 +1 1019.5 937.9 +1.7
06 22.04 В 1 20 км 8/8 1000 м
[Sc diur, vesp]
+8.3 +1.4 62 +8 +10 1017.3 937.4
09 22.04 СЗ 1 20 км 10/10 1000 м
[Cb cap]
+9.5 +1.9 59 +9 +9 1017.4 937.9
12 22.04 штиль 0 20 км 10/10 1000 м
[Cb cap]
+9.3 +1.6 59 +9 +9 1018.4 938.7
15 22.04 штиль 0 20 км 10/10 1000 м
[Cb cap]
+8.3 +3.6 72 +8 +8 1019.4 939.4 +10.6
18 22.04 штиль 0 20 км 10/10 600 м
[Cb cap]
+6.7 +4.1 83 +6 +6 1021.4 940.8
21 22.04 штиль 0 20 км 10/10 600 м
[Cb cap]
+4.6 +3.9 95 +3 +3 1023.1 941.8
00 23.04 штиль 0 20 км 8/8 1000 м
[Sc diur, vesp]
+3.1 +2.7 97 +2 +2 1024.4 942.5
03 23.04 ЮЗ 1 20 км 8/0
[Cs]
+0.7 +0.7 100 -2 -1 1026.8 944.1 +0.5
06 23.04 штиль 0 20 км 8/6 1000 м
[Sc diur, vesp Ci]
+7.9 +3.2 72 +7 +11 1025.2 944.6
09 23.04 В 3 20 км 8/8 1000 м
[Sc diur, vesp]
+14.1 +3.1 47 +13 +16 1024.0 945.2
12 23.04 В 1 20 км 10/10 1000 м
[Cb cap]
+12.2 +3.7 56 +12 +12 1025.6 946.2
15 23.04 СВ 2 20 км {ливн. осадки} 10/10 1000 м
[Cb cap]
+8.4 +6.7 89 +6 +6 1027.9 947.4 +14.2 0.5
18 23.04 штиль 0 20 км {ливн. осадки} 10/10 1000 м
[Cb cap]
+6.1 +6.0 99 +5 +5 1030.1 948.7
21 23.04 З 1 4000 м дымка 10/10 1000 м
[Cb cap]
+4.7 +4.6 99 +3 +3 1031.1 949.2
00 24.04 З 1 4000 м дымка 6/6 1000 м
[Sc diur, vesp]
+1.4 +1.4 100 -1 -1 1032.8 949.8
03 24.04 З 1 4000 м дымка 3/3 600 м
[Sc diur, vesp]
-0.3 -0.3 100 -3 -2 1034.1 950.5 -0.4
06 24.04 В 1 20 км 1/1 1500 м
[Cu hum]
+8.8 +3.1 67 +8 +17 1030.3 949.5
09 24.04 В 3 20 км 3/3 1500 м
[Cu hum]
+15.9 -1.8 30 +16 +25 1026.1 947.5
12 24.04 ЮВ 1 20 км 4/4 1500 м
[Sc]
+16.9 -3.8 24 +18 +26 1025.2 946.9
15 24.04 З 1 20 км 8/6 1000 м
[Sc diur, vesp Ci]
+14.7 -2.3 31 +15 +16 1025.8 946.9 +17.6
18 24.04 З 1 20 км 3/0
[Ci fib]
+7.3 +1.9 69 +7 +7 1029.5 948.4
21 24.04 ЮЗ 1 20 км ясно +2.9 +1.3 89 +1 +1 1031.5 949.0
00 25.04 З 1 20 км ясно +0.8 +0.7 99 -1 -1 1032.6 949.4
03 25.04 штиль 0 20 км ясно -0.7 -0.7 100 -2 -2 1033.4 949.7 -0.7
06 25.04 В 1 20 км ясно +10.0 +2.0 58 +10 +20 опасность
простуды
1028.9 948.6
09 25.04 В 2 20 км 4/0
[Ac cast]
+18.7 -0.7 27 +19 +31 опасность
простуды
1024.5 946.8
12 25.04 ЮВ 2 20 км 6/6 1500 м
[Sc]
+18.9 -1.5 25 +19 +24 1023.4 945.8
15 25.04 СВ 1 20 км 8/8 1500 м
[Sc]
+17.2 -0.3 30 +18 +19 1023.2 945.2 +19.8
18 25.04 З 1 20 км 3/0
[Ac cast]
+9.1 +3.9 70 +9 +9 1027.1 946.7
21 25.04 З 1 20 км ясно +4.6 +2.8 88 +3 +3 1028.5 946.8
00 26.04 ЮЗ 1 20 км ясно +2.2 +2.0 99 0 0 1028.9 946.4
03 26.04 ЮЗ 1 20 км ясно +0.8 +0.8 100 -1 -1 1028.8 945.9 +0.6

 

Местоположение метеостанции Гузерипль (Адыгея, Россия): широта 44.00 долгота 40.13 высота над уровнем моря 677 м.

В архиве по умолчанию представлена погода в Гузерипле за последнюю неделю. Архивные данные за месяц целиком и за предыдущие месяцы, начиная с января 2011 года, Вы можете получить, выбрав интересующий диапазон дат из раскрывающегося списка и нажав кнопку "Ввод!".


*Определитесь, кто Вы:
робот инопланетянин человек

Внимание! Время в таблицах - всемирное. Для получения местного времени необходимо прибавить поправку, которая равна 3 ч.

Смотрите также архив погоды в соседних городах и на ближайших метеорологических станциях:

Погода в Красной Поляне (Краснодарский край, Россия) (36 км)
Погода на Кордоне Лаура (Краснодарский край, Россия) (36 км)
Погода в Горная Карусель 1500 (Краснодарский край, Россия) (41 км)
Погода в Горная Карусель 1000 (Краснодарский край, Россия) (41 км)
Погода в Кепше (Краснодарский край, Россия) (43 км)
Погода в Солох Ауле (Краснодарский край, Россия) (46 км)
Погода в Шунтуке (Адыгея, Россия) (52 км)
Погода в Кичмае (Краснодарский край, Россия) (53 км)
Погода в Псебае (Краснодарский край, Россия) (54 км)
Погода в Сочи (Краснодарский край, Россия) (55 км)

Пояснения к столбцам:

Ветер - указаны скорость ветра в м/с - средняя за 10 мин, порывы в срок и между сроками (в фигурных скобках) и направление, откуда дует ветер: С - северный, СВ - северо-восточный, В - восточный, ЮВ - юго-восточный, Ю - южный, ЮЗ - юго-западный, З - западный, СЗ - северо-западный.
Видимость - горизонтальная дальность видимости в метрах или километрах. При видимости от 1 до 10 км при отсутствии осадков обычно наблюдается дымка, при ухудшении видимости до 1 км и менее - туман. В сухую погоду видимость может ухудшаться дымом, пылью или мглою.
Явления - указаны атмосферные явления, наблюдавшиеся в срок или в последний час перед сроком; фигурными скобками обозначены явления, наблюдавшиеся между сроками (за 1-3 часа до срока); квадратными скобками обозначены град или гололедные отложения с указанием их диаметра в мм.
Облачность - указаны через наклонную черту общая и нижняя облачность в баллах и высота нижней границы облаков в метрах; квадратными скобками обозначены формы облаков: Ci - перистые, Cs - перисто-слоистые, Cc - перисто-кучевые, Ac - высококучевые, As - высокослоистые, Sc - слоисто-кучевые, Ns - слоисто-дождевые, Cu - кучевые, Cb - кучево-дождевые. Подробнее классификацию облаков см. в Атласе облаков (PDF).
T - Температура воздуха - температура, измеренная на высоте 2 м над землей.
Td - Температура точки росы - температура, при понижении до которой содержащийся в воздухе водяной пар достигнет насыщения.
f - Относительная влажность воздуха - влажноcть воздуха, измеренная на высоте 2 м над землей.
Te - Эффективная температура - температура, которую ощущает одетый по сезону человек в тени. Характеристика душности погоды. При расчете учитывается влияние влажности воздуха и скорости ветра на теплоощущения человека.
Tes - Эффективная температура на солнце - температура, которую ощущает человек, с поправкой на солнечный нагрев. Характеристика знойности погоды. Зависит от высоты солнца над горизонтом, облачности и скорости ветра. Ночью, в пасмурную погоду, а также при ветре 12 м/с и более поправка равна нулю.
P - Атмосферное давление - приведенное к уровню моря атмосферное давление.
Po - Атмосферное давление - измеренное на уровне метеостанции атмосферное давление.
Tmin - Минимальная температура - минимум температуры воздуха на высоте 2 м над землей.
Tmax - Максимальная температура - максимум температуры воздуха на высоте 2 м над землей.
R - Количество осадков - Количество выпавших осадков за период времени, мм. При наведении курсора мыши на число - период времени, за который выпало указанное количество осадков.
R24 - Количество осадков - Количество выпавших осадков за 24 часа, мм.
S - Снежный покров - Высота снежного покрова, см. При наведении курсора мыши на число - состояние снежного покрова и степень покрытия местности в баллах.